Content
SEND FEEDBACK

Daily
Averages
Monthly
Summary
United States of America

BARRINGTON, ILLINOIS


Home > North America > United States > Illinois
Elevation: 810 feet     Latitude: 42 10N     Longitude: 088 09W

WEATHER
 
SELECT A DAY
Number of Records: 198,949;   Date Range: 1/1/95 - 9/29/14
 
SHARE

PRINT THIS DATA

[ ← Previous Day ]
WEATHER ALMANAC - JULY 4, 2014
[ Next Day → ]
[ °C ]   °F
Weather ElementAverageHighLow
Temperature69.2 °F78.1 °F (2:51 pm)59 °F (3:51 am)
Dewpoint47.9 °F52 °F (8:51 am)44.1 °F (7:51 pm)
Humidity48.4 %69 % (3:51 am)34 % (1:51 pm)
Barometer30.27 in30.30 in (8:51 am)30.20 in (1:51 am)
Wind Speed7.3 mph10.4 mph (12:51 pm)
Weather ElementAverage
Visibility9.8 mi
Wind DirectionSE (131.3 °)

Weather ElementTotal
Precipitation---
Cooling Degree Days3.6 (Base 65)
Growing Degree Days18.6 (Base 50)
Averaged from 23 records on July 4, 2014
WEATHER CONDITIONS BREAKOUT
WIND DIRECTION BREAKOUT
WEATHER BY HOUR - JULY 4, 2014
[ °C ]   °F
Local TimeTemperatureDewpointHumidityBarometerVisibilityWind DirectionWind SpeedGust SpeedPrecipitationEventsConditions
1:51 AM60.1 °F48.9 °F67 %30.20 in10.0 miWest (260°)5.8 mphPartly Cloudy
2:51 AM60.1 °F48.9 °F67 %30.22 in10.0 miWSW (250°)6.9 mphClear
3:51 AM59.0 °F48.9 °F69 %30.23 in10.0 miWest (260°)6.9 mphClear
4:51 AM59.0 °F48.9 °F69 %30.24 in10.0 miWSW (250°)6.9 mphPartly Cloudy
5:51 AM59.0 °F48.9 °F69 %30.26 in10.0 miWest (270°)8.1 mphPartly Cloudy
6:51 AM63.0 °F50.0 °F63 %30.27 in10.0 miWNW (300°)6.9 mphPartly Cloudy
7:51 AM68.0 °F50.0 °F52 %30.28 in10.0 miNorth (360°)5.8 mphClear
8:51 AM71.1 °F52.0 °F51 %30.30 in10.0 miNNE (30°)9.2 mphClear
9:51 AM73.0 °F50.0 °F44 %30.30 in10.0 miNNE (20°)6.9 mphClear
10:51 AM75.0 °F46.9 °F37 %30.30 in10.0 miNNE (30°)4.6 mphPartly Cloudy
11:51 AM75.0 °F48.0 °F38 %30.29 in10.0 miENE (70°)6.9 mphScattered Clouds
12:51 PM75.9 °F48.0 °F37 %30.29 in10.0 miEast (80°)10.4 mphMostly Cloudy
1:51 PM77.0 °F46.9 °F34 %30.29 in10.0 miNE (50°)4.6 mphScattered Clouds
2:51 PM78.1 °F48.0 °F35 %30.28 in10.0 miVariable5.8 mphScattered Clouds
3:51 PM77.0 °F46.9 °F34 %30.27 in10.0 miENE (70°)10.4 mphMostly Cloudy
4:51 PM75.2 °F46.4 °F36 %30.27 in10.0 miEast (90°)10.4 mphScattered Clouds
5:51 PM75.0 °F45.0 °F34 %30.27 in10.0 miENE (70°)9.2 mphScattered Clouds
6:51 PM73.9 °F46.0 °F37 %30.27 in10.0 miENE (60°)8.1 mphPartly Cloudy
7:51 PM72.0 °F44.1 °F37 %30.27 in10.0 miEast (80°)8.1 mphScattered Clouds
8:51 PM69.8 °F46.4 °F43 %30.27 in10.0 miEast (80°)8.1 mphScattered Clouds
9:51 PM66.2 °F46.4 °F49 %30.29 in10.0 miEast (100°)5.8 mphScattered Clouds
10:51 PM66.2 °F46.4 °F49 %30.28 in10.0 miEast (100°)6.9 mphScattered Clouds
11:51 PM63.0 °F50.0 °F63 %30.27 in6.0 miSE (140°)4.6 mphHaze
Hourly data recorded from KORD, located miles away from Barrington, Illinois







STORIES FROM OUR PARTNERS